Location: ?
(35.3436°N, 139.3168°E)
Time: 23:49:35
(UTC+00:00)

X-37B - Visible Passes

Search period start: 09 May 2021 00:00
Search period end: 19 May 2021 00:00
Orbit: 386 x 389 km, 45.0° (Epoch: 08 May)

Date Brightness Start Highest point End Pass type
(mag) Time Alt. Az. Time Alt. Az. Time Alt. Az.
09 May 3.4 11:06:27 10° NNW 11:08:23 15° N 11:10:19 10° NE visible
09 May 4.2 12:42:43 10° NW 12:42:54 11° NW 12:42:54 11° NW visible
10 May 3.4 10:07:52 10° NW 10:09:42 14° N 10:11:33 10° NE visible
10 May 2.7 11:44:30 10° NW 11:46:59 22° NNE 11:46:59 22° NNE visible
11 May 3.0 10:46:17 10° NNW 10:48:31 17° NNE 10:50:45 10° NE visible
11 May 3.5 12:22:26 10° NW 12:23:21 17° NW 12:23:21 17° NW visible
12 May 1.8 11:24:11 10° NW 11:27:08 33° NNE 11:27:26 33° NE visible
13 May 2.6 10:25:59 10° NW 10:28:36 23° NNE 10:31:12 10° ENE visible
13 May 2.7 12:02:17 10° WNW 12:03:50 26° WNW 12:03:50 26° WNW visible
14 May 0.8 11:03:55 10° NW 11:07:04 60° NNE 11:07:58 40° E visible
15 May 1.8 10:05:40 10° NW 10:08:37 34° NNE 10:11:34 10° E visible
15 May 2.3 11:42:21 10° WNW 11:44:26 27° WSW 11:44:26 27° WSW visible
16 May 0.7 10:43:45 10° WNW 10:46:56 66° SSW 10:48:39 24° SE visible
17 May 2.9 11:22:58 10° W 11:24:54 15° SW 11:25:14 15° SW visible
18 May 2.0 10:23:50 10° WNW 10:26:42 30° SW 10:29:32 10° SSE visible
